Find Starlink 38216

NORAD ID: 100545 Int'l Des: 2026-200 Owner: SPXS Country: US Constellation: starlink operational

Current View

Loading 3D Globe...

About Starlink 38216

Starlink 38216 (NORAD 100545) is a starlink constellation satellite launched Sep 2, 2026 by SPXS of US. with a mass of 575.00 kg.

Upcoming Passes

Passes for default location (London). Set your location on the main map for personalized predictions.

Altitude History

Loading altitude history...

Two-Line Element Set

1 A0545U 26200M 26253.79047669 .00388054 00000-0 16145-2 0 9997
2 A0545 69.9969 162.9366 0002851 295.2464 64.8443 15.84567740 1350
Epoch: Sep 10, 2026 • Age: 28 hours

Current Status

Altitude 323.3 km
Apogee / Perigee N/A
Velocity 7.71 km/s
Sub-Earth Point -23.77°S, 11.29°E
Launch Date Sep 2, 2026
Age 9 days
Type internet

Technical Details

Classification Payload
Mass 575.00 kg
Dry Mass 530.00 kg
Total Mass 575.00 kg
Length 0.30 m
Diameter 4.10 m
Span 29.00 m
Shape Box + pan
Manufacturer SPXS
Bus Type Starlink V2MO
Phase Status In Orbit
Owner/State SPXS/US

Most Searched